Location: Newark
(1.4667°N, 173.0333°E)
Time: 00:55:15
(UTC+00:00)

Hubble Space Telescope - Visible Passes

Search period start: 22 March 2019 00:00
Search period end: 01 April 2019 00:00
Orbit: 537 x 540 km, 28.5° (Epoch: 21 March)

Date Brightness Start Highest point End Pass type
(mag) Time Alt. Az. Time Alt. Az. Time Alt. Az.
22 Mar 3.5 07:48:59 10° NW 07:50:13 11° NNW 07:51:27 10° N visible
22 Mar 3.3 16:24:18 20° E 16:24:18 20° E 16:25:51 10° E visible
22 Mar 1.7 17:59:41 11° W 18:03:13 34° SSW 18:06:58 10° SE visible
23 Mar 3.8 16:14:58 14° ESE 16:14:58 14° ESE 16:15:37 10° ESE visible
23 Mar 2.1 17:50:20 15° WSW 17:52:45 24° SSW 17:56:09 10° SSE visible
24 Mar 2.5 17:40:59 16° SW 17:42:18 18° SSW 17:45:09 10° SSE visible
25 Mar 2.8 17:31:34 13° SSW 17:31:53 13° SSW 17:33:51 10° S visible
